Powrót do katalogu

NOAA 16 DEB

AktywnyPO
NORAD 41150·DEBRIS·🇺🇸 United States

Wystrzelony Sep 21, 2000 z Vandenberg Space Force Base

Loading…

Następne Przeloty (najbliższe 24 godziny)

TLE

ŚwieżeSource: Space-Track

Epoka: Sep 14, 2026, 07:42 UTC

1 41150U 00055CH  26257.32140674  .00017639  00000-0  17720-2 0  9995
2 41150  98.8011  99.6239 0023234  21.2981 338.9196 14.91139950565642

Śledź NOAA 16 DEB w czasie rzeczywistym z AllMySat

Download on the App Store